Home > Weather > Hefei > Past weeks

Flag for China Weather for the Past 2 Weeks in Hefei, Anhui, China

Now
64 °F

Clear.


Feels Like: 64 °F
Forecast: 53 / 69 °F
Wind: 8 mph from South

Location: Hefei Airport

Current Time: Feb 10, 2016 at 7:11:20 PM

Latest Report: Feb 10, 2016 at 6:00 PM


Visibility: 10 mi

Pressure: 29.89 "Hg

Humidity: 40%

Dew point: 39 °F

Location of HefeiLocation

Historic Weather in Hefei — Graph

°F

Hefei Temperature Yesterday

Maximum temperature yesterday: 68 °F (at 2:00 PM)
Minimum temperature yesterday: 37 °F (at 2:00 AM)
Average temperature yesterday: 52 °F

High & Low Weather Summary for the Past Weeks

 TemperatureHumidityPressure
High75 °F (Feb 10, 2:00 PM)100% (Jan 28, 9:00 AM)30.69 "Hg (Jan 28, 9:00 AM)
Low21 °F (Feb 1, 7:00 AM)20% (Feb 8, 2:00 PM)29.86 "Hg (Feb 10, 3:00 PM)
Average39 °F65%30.34 "Hg
* Reported Jan 26 6:00 PM — Feb 10 6:00 PM, Hefei, Weather by CustomWeather, © 2016

Note: Actual official high and low records may vary slightly from our data, if they occured in-between our weather recording intervals... More about our weather records

Advertising

Hefei Weather History for the Previous 24 Hours

 ConditionsComfort  
Time TempWeatherWind HumidityBarometerVisibility
6:00 PM
Wed, Feb 10
64 °FClear.8 mph40%29.89 "Hg10 mi
5:00 PM68 °FSunny.10 mph35%29.86 "Hg10 mi
4:00 PM70 °FSunny.15 mph31%29.86 "Hg10 mi
3:00 PM72 °FSunny.15 mph29%29.86 "Hg10 mi
2:00 PM75 °FSunny.10 mph24%29.89 "Hg10 mi
1:00 PM73 °FSunny.13 mph25%29.92 "Hg10 mi
12:00 PM72 °FSunny.15 mph25%29.95 "Hg10 mi
11:00 AM68 °FSunny.15 mph33%29.98 "Hg10 mi
10:00 AM63 °FSunny.15 mph37%30.01 "Hg10 mi
9:00 AM57 °FSunny.13 mph41%30.01 "Hg10 mi
8:00 AM54 °FSunny.10 mph51%29.98 "Hg10 mi
7:00 AM52 °FSunny.10 mph54%29.98 "Hg10 mi
6:00 AM46 °FClear.6 mph66%29.98 "Hg10 mi
5:00 AM48 °FClear.6 mph58%29.98 "Hg10 mi
4:00 AM54 °FClear.8 mph47%29.98 "Hg10 mi
3:00 AM54 °FClear.6 mph47%29.98 "Hg10 mi
2:00 AM54 °FClear.8 mph47%30.01 "Hg10 mi
1:00 AM55 °FClear.8 mph44%30.01 "Hg10 mi
12:00 AM52 °FClear.6 mph50%30.01 "Hg10 mi
11:00 PM
Tue, Feb 9
55 °FClear.10 mph44%30.04 "Hg10 mi
10:00 PM52 °FClear.6 mph47%30.04 "Hg10 mi
9:00 PM55 °FClear.10 mph41%30.04 "Hg10 mi
8:00 PM57 °FClear.8 mph41%30.04 "Hg10 mi
7:00 PM59 °FClear.10 mph36%30.04 "Hg10 mi
Weather by CustomWeather, © 2016

See weather overviewHow to use our weather pages